View from above orbital plane
|
View from above satellite
|
Ground track
|
The orbit data is extracted from the following two-line orbital elements,
1 15495U 85009B 21104.55344881 .00000080 00000-0 66769-5 0 9999
2 15495 82.5223 318.3885 0021158 42.9458 317.3404 14.83903014936062
Epoch (UTC): | 14 April 2021 13:16:57 |
Eccentricity: | 0.0021158 |
inclination: | 82.5223° |
perigee height: | 602 km |
apogee height: | 632 km |
right ascension of ascending node: | 318.3885° |
argument of perigee: | 42.9458° |
revolutions per day: | 14.83903014 |
mean anomaly at epoch: | 317.3404° |
orbit number at epoch: | 93606 |
The dashed part of the orbit path shows where the satellite is in the earth's shadow,
|
|